Wind_Speed
23 22 21 20 20 21 20 18 17 17 17 16 15 15 16 16 16 16 16 16 16 15 15 14 14 13 13 12 12 11 11 11 12 12 12 12 13 14 16 17 19 20 20 21
24 23 22 22 22 22 20 19 19 18 19 18 16 16 16 16 16 16 16 17 17 17 16 15 15 15 14 14 13 12 12 12 12 12 12 13 13 14 15 17 18 20 21 21
24 24 23 24 24 23 22 21 20 19 20 19 19 18 18 18 17 17 17 17 18 17 17 17 16 16 16 16 15 14 13 13 13 13 13 13 14 15 16 17 17 18 20 21
24 25 25 26 25 23 22 22 21 21 20 20 20 20 20 20 19 19 19 19 20 19 18 18 18 18 18 17 16 15 14 14 14 14 14 15 15 15 16 17 18 19 20 21
25 25 26 27 24 24 23 22 22 22 21 21 21 21 22 21 21 21 21 21 21 21 20 20 19 19 19 19 18 17 16 16 16 16 16 16 16 16 16 17 18 19 19 21
28 25 26 27 24 24 24 24 22 22 22 22 22 23 22 22 22 23 23 23 22 22 22 22 21 20 20 20 19 18 18 18 17 16 16 16 17 17 18 18 19 20 20 21
29 27 28 28 25 25 26 26 23 23 23 23 23 23 23 23 24 24 24 24 23 23 23 22 22 22 21 21 20 20 19 19 19 19 18 18 18 18 19 20 20 21 22 22
30 28 30 28 27 28 27 25 25 24 24 24 24 24 24 23 24 24 24 24 24 23 23 22 22 22 22 22 21 21 20 19 19 19 20 19 19 19 19 19 20 21 23 24
32 31 30 28 27 27 27 27 26 25 25 25 25 25 25 24 24 24 24 24 24 24 24 23 23 23 22 22 21 21 21 20 20 20 20 20 20 21 21 21 22 23 24 25
30 30 29 28 28 28 27 27 27 26 26 26 26 26 26 25 24 24 24 24 24 23 23 23 22 22 22 22 21 21 21 21 21 21 21 21 22 23 23 23 24 24 24 24
31 30 29 29 28 28 27 27 26 26 26 26 26 25 24 24 24 25 25 24 23 22 22 22 22 21 21 22 22 22 22 22 22 22 22 22 23 24 25 24 24 24 24 25
30 29 29 28 28 27 27 26 25 25 25 25 24 23 23 23 23 23 23 23 23 22 22 22 22 22 21 21 21 21 22 23 23 22 22 22 23 24 24 24 24 25 26 27
28 28 27 26 26 26 26 25 24 24 24 23 23 22 22 22 21 21 21 22 21 21 21 21 20 20 20 20 20 21 21 22 22 22 22 22 23 24 25 25 25 26 27 28
27 26 26 25 25 24 24 23 23 22 21 21 21 21 21 21 21 21 20 21 20 20 20 19 19 19 20 20 20 20 20 20 20 20 21 21 22 23 24 25 25 25 26 27
25 25 25 24 24 23 22 22 21 20 20 20 20 20 20 20 20 20 19 19 18 18 18 18 18 18 18 18 18 18 18 19 19 20 21 21 22 23 23 24 24 25 26 27
24 24 23 23 22 21 21 20 20 19 19 19 19 19 19 19 18 18 18 17 16 16 17 17 17 17 17 18 18 17 18 18 18 19 20 21 21 21 22 23 25 25 26 27
23 23 22 22 21 20 20 19 18 18 18 18 18 18 17 17 16 16 16 16 16 16 16 16 16 16 17 17 17 17 17 17 17 18 18 19 20 21 22 24 25 25 26 26
22 22 22 21 20 20 19 18 17 17 17 17 16 16 15 15 15 14 14 14 14 14 14 14 14 14 14 15 15 15 16 17 18 18 19 20 22 22 23 24 24 25 26 27
21 20 19 19 19 18 18 18 17 16 16 16 15 14 14 14 14 14 13 12 12 12 12 12 12 13 14 14 14 15 16 16 17 18 19 21 22 23 24 24 25 26 26 27
20 20 19 19 18 18 17 17 16 15 15 14 14 13 13 12 12 12 12 11 11 11 11 12 12 13 14 14 14 15 15 16 17 19 20 21 22 23 24 24 25 25 26 27
19 19 19 18 18 17 16 16 16 15 14 13 13 12 12 11 11 11 11 11 10 10 10 11 12 13 13 14 14 16 17 18 19 20 21 22 22 24 24 25 25 26 26 27
18 19 19 18 18 17 17 16 15 15 14 14 13 13 12 11 10 10 10 9 9 10 11 11 12 13 14 14 16 17 19 20 21 21 22 23 24 25 25 26 26 26 27 27
18 18 18 18 18 17 16 15 15 14 14 13 12 11 10 9 8 8 8 8 9 10 11 12 13 14 15 17 18 19 20 21 22 23 24 25 25 25 26 26 26 26 27 27
17 17 17 17 17 16 15 15 14 13 12 12 10 9 8 8 8 8 8 9 10 11 12 14 14 16 17 19 20 20 21 22 23 24 24 25 25 25 25 25 25 26 26 26
17 16 16 16 16 16 15 15 14 12 11 10 9 9 8 8 9 9 10 11 11 12 14 15 16 18 19 20 21 21 22 23 23 23 23 23 24 24 24 25 25 25 25 25
17 17 16 16 15 15 14 13 12 11 11 10 9 9 9 9 10 10 10 11 12 14 16 17 18 19 20 20 21 22 22 22 22 22 23 24 24 24 25 25 25 24 24 24
17 17 16 15 14 13 12 11 11 11 10 10 9 9 9 9 10 11 12 13 15 16 17 18 19 19 20 21 22 22 22 22 23 23 24 24 24 25 25 24 24 23 23 23
Wind_Direction
218 223 228 231 231 229 229 229 237 243 245 249 249 251 252 255 259 263 264 264 266 271 274 276 281 284 284 286 288 289 286 282 280 275 265 257 250 243 242 242 240 241 243 244
222 224 226 226 227 228 230 234 238 242 247 246 249 251 253 257 262 264 265 265 266 270 271 272 277 279 280 283 286 284 281 279 278 274 266 259 255 249 247 246 245 245 245 246
224 225 228 228 226 228 234 238 241 244 246 248 250 252 254 257 261 263 263 264 267 268 270 272 276 277 277 277 278 278 276 275 274 270 264 259 254 252 251 248 247 249 250 249
223 225 227 232 231 233 238 240 241 244 248 249 252 254 255 257 260 262 264 266 267 267 269 272 276 278 275 274 273 273 270 271 270 270 266 261 256 253 253 250 250 251 252 253
224 228 232 235 234 236 239 243 244 246 248 251 254 256 257 258 259 262 264 265 265 265 267 270 274 276 274 273 272 271 271 270 268 268 267 264 261 256 255 253 253 254 257 256
227 227 234 240 235 236 240 244 244 247 249 251 254 256 257 257 259 260 261 262 263 264 265 268 271 272 273 271 270 269 268 269 267 267 266 264 264 260 257 256 258 259 259 259
229 231 236 240 237 237 241 244 244 247 250 252 255 255 257 257 258 259 260 262 264 265 265 266 267 269 270 269 268 267 267 267 266 267 266 266 266 263 262 261 262 261 261 263
228 231 237 238 237 238 241 244 247 250 252 254 255 257 259 259 259 259 260 262 264 263 262 263 264 266 267 267 266 265 265 265 266 266 265 265 265 266 264 263 263 264 264 265
227 230 236 237 239 241 243 246 249 252 253 254 255 258 259 258 260 261 260 261 262 262 260 261 263 264 265 265 265 265 266 266 266 266 264 264 265 267 268 267 266 266 267 268
230 232 234 237 239 241 242 246 249 252 253 253 255 257 257 258 259 260 260 261 262 261 261 261 262 263 263 264 264 264 265 265 266 266 266 265 266 267 268 268 267 267 267 269
232 233 234 235 237 239 242 245 249 252 253 254 255 256 256 256 257 257 259 261 261 260 261 261 261 263 263 263 263 263 264 265 267 269 267 268 268 268 270 271 271 270 271 273
229 231 231 232 235 238 241 244 247 250 251 252 253 253 254 255 255 256 257 257 259 261 262 262 263 264 264 264 264 264 265 265 267 268 267 268 269 271 272 273 273 274 276 277
227 230 231 232 235 237 239 242 245 247 248 248 249 251 253 254 254 256 255 255 257 259 261 261 262 262 263 265 267 267 267 266 267 268 269 270 272 273 274 275 276 276 276 278
227 228 229 231 234 236 237 239 242 245 246 247 249 250 250 251 253 255 253 252 254 257 259 258 259 261 262 266 267 268 269 269 268 269 270 272 275 276 277 278 278 279 279 280
227 227 229 231 234 234 233 236 239 241 243 244 246 246 246 249 251 250 250 250 250 254 255 256 258 261 264 267 271 271 270 270 270 272 274 276 277 277 277 279 280 281 280 281
225 226 227 229 230 232 233 235 237 238 239 240 241 242 245 247 248 247 246 248 248 251 255 258 260 262 264 267 270 271 272 272 273 276 279 279 278 278 279 280 280 281 283 283
223 224 226 227 227 229 229 229 230 231 235 235 235 237 242 244 246 246 246 247 249 251 254 256 258 262 266 269 271 271 272 275 278 279 279 280 282 282 283 283 284 285 287 288
222 223 224 224 225 225 223 224 227 231 232 231 232 236 237 239 240 239 239 242 243 246 249 254 258 260 266 270 271 272 276 279 279 280 282 283 283 285 287 288 290 290 291 292
218 218 218 219 218 218 221 225 227 227 227 228 229 230 230 231 231 234 235 236 241 247 249 254 259 264 269 275 277 279 281 282 282 283 285 288 291 292 292 293 295 296 296 297
215 216 217 216 216 218 220 218 217 218 221 223 222 222 224 225 230 234 238 244 250 253 254 259 262 267 271 275 278 281 284 287 288 291 292 294 296 297 296 296 297 298 299 300
212 213 212 210 210 210 209 209 210 211 213 214 215 218 222 227 235 239 243 247 251 254 259 263 267 271 274 278 283 286 289 291 294 297 298 299 300 301 301 300 300 300 300 301
206 206 205 204 204 205 203 203 205 207 210 214 219 223 224 228 232 237 239 246 253 259 265 269 274 278 282 287 291 294 296 298 299 301 302 302 302 302 302 301 301 301 301 302
198 197 196 196 197 198 198 199 202 205 209 213 215 218 224 230 237 243 250 258 268 275 279 282 284 287 292 296 297 299 300 302 303 304 304 304 303 303 302 302 302 302 302 303
189 188 189 190 192 194 195 196 197 200 204 207 211 216 223 232 243 257 268 275 280 282 286 290 293 295 298 300 301 303 303 304 304 304 304 304 304 305 304 303 303 303 304 304
185 186 186 188 190 190 191 192 194 197 201 205 213 223 233 243 257 268 274 280 285 289 292 295 298 299 301 302 303 304 305 305 306 306 306 306 307 306 306 305 304 304 304 304
184 186 186 187 187 188 190 194 199 205 211 219 228 237 246 257 266 273 278 284 289 293 296 299 301 302 303 304 304 305 305 306 306 306 307 307 308 307 307 307 306 305 305 305
183 183 183 183 186 189 193 199 205 213 223 232 240 247 256 264 272 279 285 291 294 296 298 300 301 302 303 304 305 305 305 305 306 307 307 308 308 308 308 307 306 305 305 305
Height
5815 5818 5821 5824 5826 5829 5832 5836 5839 5840 5840 5840 5841 5841 5842 5842 5842 5842 5842 5842 5842 5841 5841 5840 5840 5838 5837 5836 5835 5834 5833 5833 5832 5832 5832 5832 5832 5833 5834 5835 5836 5838 5839 5841
5809 5812 5816 5819 5821 5824 5827 5830 5832 5834 5835 5835 5836 5837 5837 5838 5838 5838 5838 5838 5838 5837 5837 5836 5836 5835 5834 5833 5833 5832 5831 5830 5830 5830 5830 5829 5830 5830 5831 5831 5832 5833 5835 5836
5805 5808 5810 5813 5816 5819 5822 5824 5827 5828 5830 5830 5831 5832 5832 5833 5833 5833 5833 5833 5833 5833 5832 5832 5832 5831 5830 5830 5829 5829 5828 5828 5827 5827 5827 5827 5827 5827 5827 5828 5829 5829 5830 5831
5800 5803 5806 5810 5811 5814 5816 5819 5821 5822 5823 5824 5825 5826 5827 5827 5828 5828 5828 5828 5828 5828 5828 5828 5828 5827 5826 5826 5825 5825 5825 5825 5824 5824 5824 5823 5823 5823 5824 5824 5825 5825 5825 5826
5794 5797 5800 5802 5805 5808 5811 5813 5815 5816 5817 5818 5819 5820 5820 5821 5822 5822 5822 5823 5823 5823 5823 5823 5823 5822 5822 5821 5821 5821 5821 5821 5820 5820 5820 5820 5820 5820 5820 5820 5820 5821 5821 5821
5787 5792 5794 5797 5800 5802 5806 5806 5809 5810 5811 5812 5813 5814 5815 5815 5815 5816 5816 5816 5817 5817 5817 5818 5818 5817 5817 5817 5816 5816 5816 5816 5816 5816 5816 5816 5815 5815 5815 5816 5816 5816 5816 5816
5780 5784 5787 5789 5793 5796 5799 5800 5802 5803 5804 5806 5807 5808 5809 5808 5809 5809 5810 5810 5811 5811 5811 5812 5812 5812 5811 5811 5811 5811 5811 5811 5811 5811 5811 5811 5811 5811 5811 5811 5811 5811 5811 5811
5773 5777 5781 5782 5785 5788 5791 5793 5794 5796 5797 5798 5800 5801 5801 5802 5802 5803 5803 5804 5804 5805 5805 5805 5806 5806 5806 5805 5805 5805 5805 5805 5805 5805 5806 5806 5806 5806 5806 5806 5806 5806 5805 5805
5765 5769 5771 5774 5777 5781 5783 5785 5787 5789 5790 5791 5792 5793 5794 5795 5796 5796 5797 5797 5797 5798 5798 5799 5799 5800 5800 5800 5799 5800 5800 5800 5800 5800 5800 5800 5801 5801 5800 5800 5800 5800 5799 5799
5757 5760 5764 5767 5770 5773 5775 5778 5780 5781 5782 5784 5785 5786 5787 5788 5789 5789 5790 5790 5791 5791 5791 5792 5793 5793 5793 5793 5794 5794 5794 5794 5794 5794 5794 5794 5794 5794 5794 5794 5794 5793 5793 5792
5750 5753 5756 5759 5762 5765 5768 5770 5772 5774 5775 5776 5778 5779 5780 5781 5782 5782 5783 5783 5784 5784 5785 5786 5786 5787 5787 5787 5787 5788 5788 5788 5788 5788 5788 5788 5788 5788 5788 5787 5787 5787 5786 5785
5743 5746 5749 5753 5755 5758 5761 5763 5765 5767 5768 5769 5771 5772 5773 5774 5775 5775 5776 5777 5777 5778 5779 5779 5780 5780 5781 5781 5781 5781 5782 5782 5782 5782 5782 5781 5781 5781 5780 5780 5780 5780 5779 5779
5736 5739 5742 5745 5748 5751 5754 5756 5758 5760 5761 5763 5764 5765 5766 5767 5768 5769 5769 5770 5771 5772 5773 5773 5774 5775 5775 5776 5776 5776 5776 5776 5775 5775 5775 5775 5775 5774 5774 5773 5773 5772 5771 5770
5729 5733 5736 5739 5742 5744 5747 5749 5751 5753 5755 5756 5758 5759 5760 5761 5762 5763 5763 5764 5765 5766 5767 5768 5768 5769 5770 5770 5770 5770 5770 5769 5769 5769 5769 5768 5768 5767 5767 5766 5765 5764 5763 5762
5723 5726 5730 5733 5735 5738 5741 5743 5745 5747 5749 5750 5752 5753 5754 5755 5756 5757 5758 5759 5760 5761 5762 5763 5763 5764 5764 5764 5764 5764 5764 5764 5764 5763 5763 5762 5761 5761 5760 5759 5758 5757 5755 5754
5717 5721 5724 5727 5730 5732 5735 5738 5740 5742 5743 5745 5746 5748 5749 5750 5751 5752 5753 5754 5755 5756 5757 5758 5758 5759 5759 5759 5759 5759 5759 5758 5758 5757 5757 5756 5755 5754 5753 5752 5751 5749 5747 5746
5712 5715 5719 5721 5724 5727 5730 5732 5734 5736 5738 5740 5741 5743 5744 5745 5746 5747 5749 5750 5751 5752 5752 5753 5753 5754 5754 5754 5754 5754 5753 5753 5753 5752 5751 5750 5749 5748 5746 5745 5743 5741 5740 5737
5707 5710 5713 5716 5719 5722 5725 5727 5729 5732 5733 5735 5737 5738 5740 5741 5743 5744 5745 5746 5747 5748 5748 5749 5749 5749 5749 5749 5749 5749 5748 5748 5747 5747 5746 5744 5743 5741 5740 5738 5736 5734 5732 5729
5702 5705 5709 5712 5715 5717 5720 5723 5725 5727 5729 5731 5733 5735 5736 5738 5739 5740 5741 5742 5743 5744 5744 5745 5745 5745 5745 5745 5744 5744 5743 5743 5742 5741 5740 5738 5737 5735 5733 5730 5728 5726 5724 5721
5698 5701 5705 5708 5711 5713 5716 5719 5721 5724 5726 5728 5730 5731 5733 5734 5736 5737 5738 5739 5739 5740 5740 5741 5741 5741 5741 5741 5740 5739 5739 5738 5737 5735 5734 5732 5730 5728 5726 5723 5721 5718 5716 5713
5694 5698 5701 5704 5707 5710 5713 5716 5718 5721 5723 5725 5727 5729 5730 5732 5733 5734 5735 5736 5736 5736 5737 5737 5737 5737 5737 5736 5735 5734 5734 5732 5731 5729 5727 5725 5723 5720 5718 5716 5713 5710 5708 5705
5691 5694 5697 5701 5704 5707 5710 5713 5715 5718 5720 5722 5724 5726 5728 5729 5730 5731 5732 5733 5733 5733 5733 5733 5733 5733 5732 5731 5730 5729 5728 5726 5724 5722 5720 5718 5715 5713 5711 5708 5705 5702 5700 5697
5688 5692 5695 5698 5702 5705 5708 5711 5713 5716 5718 5720 5722 5723 5725 5726 5727 5728 5729 5729 5729 5730 5730 5729 5729 5728 5727 5726 5725 5723 5721 5719 5717 5715 5713 5710 5708 5705 5702 5700 5697 5694 5691 5688
5687 5690 5694 5697 5700 5703 5706 5709 5711 5714 5716 5718 5720 5721 5723 5724 5725 5725 5725 5726 5726 5726 5725 5725 5724 5723 5722 5720 5718 5716 5714 5712 5710 5707 5705 5702 5700 5697 5694 5691 5689 5686 5683 5680
5687 5690 5693 5696 5699 5702 5705 5707 5710 5712 5714 5716 5718 5719 5720 5721 5722 5722 5722 5722 5722 5721 5721 5720 5719 5717 5716 5714 5712 5710 5708 5705 5703 5700 5697 5695 5692 5689 5687 5684 5681 5678 5674 5671
5686 5689 5692 5695 5698 5701 5703 5706 5708 5711 5713 5714 5715 5717 5717 5718 5718 5718 5718 5718 5718 5717 5716 5714 5713 5711 5710 5708 5705 5703 5701 5698 5696 5693 5691 5688 5685 5682 5679 5676 5673 5670 5667 5664
5685 5688 5692 5695 5697 5700 5702 5705 5707 5709 5710 5712 5713 5714 5714 5714 5714 5714 5714 5714 5713 5712 5710 5709 5707 5705 5703 5701 5699 5697 5694 5692 5689 5686 5684 5681 5678 5675 5672 5668 5665 5662 5660 5657